This demonstration page uses our WeatherBlox Daily Observations layout. Learn more.

Left ArrowRight Arrow

Hourly Observations for December 16, 2018

Temp ( °F °C ) Dew Point ( °F °C ) Humidity (%) Winds ( mph kmh ) Pressure ( in mb ) Visibility ( mi km ) Precip ( " mm )
12:53 am 00:53 Clear 31 -0.6 26 -3.3 82 82 NW 7 11 30.21 1023 10 16 0.00 0.00
1:53 am 01:53 Clear 34 1.1 27 -2.8 76 76 NNW 10 17 30.22 1023 10 16 0.00 0.00
2:53 am 02:53 Clear 33 0.6 27 -2.8 78 78 NW 8 13 30.25 1024 10 16 0.00 0.00
3:53 am 03:53 Clear 30 -1.1 26 -3.3 85 85 Calm 30.23 1024 10 16 0.00 0.00
4:53 am 04:53 Clear 31 -0.6 26 -3.3 82 82 NW 6 9 30.25 1024 10 16 0.00 0.00
5:53 am 05:53 Clear 33 0.6 26 -3.3 75 75 NNW 12 19 30.28 1025 10 16 0.00 0.00
6:53 am 06:53 Clear 31 -0.6 25 -3.9 79 79 NNW 6 9 30.31 1026 10 16 0.00 0.00
7:53 am 07:53 Sunny 28 -2.2 23 -5 81 81 NNW 5 7 30.31 1026 10 16 0.00 0.00
8:53 am 08:53 Sunny 35 1.7 27 -2.8 72 72 NNW 7 11 30.32 1027 10 16 0.00 0.00
9:53 am 09:53 Sunny 39 3.9 29 -1.7 67 67 NW 6 9 30.35 1028 10 16 0.00 0.00
10:53 am 10:53 Sunny 45 7.2 30 -1.1 56 56 N 7 11 30.35 1028 10 16 0.00 0.00
11:53 am 11:53 Sunny 48 8.9 31 -0.6 52 52 N 6 9 30.34 1027 10 16 0.00 0.00
12:53 pm 12:53 Sunny 52 11.1 30 -1.1 43 43 NW 5 7 30.31 1026 10 16 0.00 0.00
1:53 pm 13:53 Sunny 55 12.8 27 -2.8 34 34 NNW 6 9 30.29 1026 10 16 0.00 0.00
2:53 pm 14:53 Sunny 55 12.8 26 -3.3 33 33 NNW 7 11 30.30 1026 10 16 0.00 0.00
3:53 pm 15:53 Sunny 54 12.2 30 -1.1 40 40 N 3 6 30.32 1027 10 16 0.00 0.00
4:53 pm 16:53 Sunny 50 10 29 -1.7 44 44 Calm 30.32 1027 10 16 0.00 0.00
5:53 pm 17:53 Clear 39 3.9 28 -2.2 65 65 Calm 30.34 1028 10 16 0.00 0.00
6:53 pm 18:53 Clear 38 3.3 27 -2.8 65 65 SW 5 7 30.34 1028 10 16 0.00 0.00
7:53 pm 19:53 Clear 35 1.7 28 -2.2 76 76 Calm 30.35 1028 10 16 0.00 0.00
8:53 pm 20:53 Clear 32 0 27 -2.8 82 82 WSW 3 6 30.35 1028 10 16 0.00 0.00
9:53 pm 21:53 Clear 32 0 27 -2.8 82 82 Calm 30.34 1028 10 16 0.00 0.00
10:53 pm 22:53 Clear 28 -2.2 25 -3.9 88 88 Calm 30.33 1027 10 16 0.00 0.00
11:53 pm 23:53 Clear 33 0.6 29 -1.7 85 85 S 3 6 30.31 1026 10 16 0.00 0.00

Powered by AerisWeather